Temperature
9 10 10 11 11 12 12 12 13 13 13 12 13 14 15 15 15 15 15 15 15 15 15 15 15 16 16 17 18 19 19 19 18 17 15 15 14 14 13 13 12 12 12 12
8 8 11 11 11 10 10 10 11 12 12 12 12 13 14 15 15 14 15 15 15 15 16 16 16 15 16 17 18 18 18 18 18 17 15 15 15 14 13 13 12 12 12 11
9 9 10 9 9 9 9 9 10 11 11 11 11 12 15 16 15 15 14 14 15 15 16 16 16 16 16 16 17 18 18 18 18 16 14 15 15 14 13 12 12 11 11 11
9 9 9 8 9 9 9 10 10 10 9 10 10 10 14 15 14 14 15 15 15 15 15 15 16 17 16 16 17 17 17 17 17 16 16 15 14 13 13 12 12 11 11 10
8 8 8 8 9 9 9 9 9 9 9 9 10 9 12 14 13 14 15 16 16 15 15 15 15 15 16 16 17 17 17 17 17 16 15 13 13 13 13 12 11 10 10 10
9 9 9 9 9 9 9 8 8 8 8 7 10 10 12 15 15 15 16 16 16 15 15 14 14 14 14 14 16 16 16 16 16 15 13 13 13 13 13 11 11 10 10 10
8 8 8 8 8 8 8 7 8 8 7 9 12 10 12 15 15 15 15 15 15 15 14 14 14 14 13 13 15 16 16 16 15 13 13 13 13 13 12 11 11 11 10 10
7 8 8 8 8 8 8 8 8 9 10 11 11 10 13 15 15 14 14 14 13 13 13 13 13 13 13 14 15 15 15 15 14 13 12 13 12 12 12 11 11 11 10 10
8 8 8 8 9 8 7 7 9 8 8 8 10 12 13 14 14 14 14 14 13 13 13 13 13 12 12 13 14 14 14 14 13 12 12 12 12 11 11 11 10 10 10 9
9 7 8 8 8 8 9 8 7 6 7 8 11 12 13 14 14 14 14 14 13 13 12 12 12 12 11 11 12 11 12 13 12 12 12 12 11 11 11 11 10 9 9 9
9 7 7 7 6 7 7 6 6 8 8 8 9 12 15 14 14 14 14 13 12 12 11 11 11 11 10 10 9 9 10 11 12 12 12 11 11 11 10 10 9 9 9 8
8 7 7 7 9 9 9 8 7 6 7 8 8 11 14 14 14 13 13 12 12 11 10 10 10 9 8 8 8 8 10 11 11 12 11 11 10 10 9 9 9 8 8 7
8 6 6 8 8 8 7 8 8 7 7 7 7 10 13 13 13 13 12 12 11 10 9 8 8 7 7 7 7 9 10 11 11 11 11 10 10 9 9 9 8 8 7 6
8 7 7 9 10 8 6 7 7 6 6 7 8 10 12 12 12 12 11 11 10 9 8 7 6 6 6 6 7 10 11 11 11 11 10 9 9 9 8 8 8 7 6 5
7 6 6 7 8 8 7 7 6 6 6 7 9 10 11 12 11 11 10 9 9 9 7 6 5 5 5 6 7 10 11 11 10 10 9 9 9 8 8 7 6 5 4 4
7 6 6 7 8 9 7 8 7 7 7 7 7 8 10 11 10 9 8 8 8 8 7 5 4 4 5 6 8 10 10 9 9 9 9 8 8 7 7 6 5 4 3 3
7 6 6 8 10 9 9 9 8 8 8 8 7 9 10 10 9 8 8 7 8 7 6 4 4 4 5 7 9 9 9 8 8 8 8 8 7 7 6 5 4 3 2 2
7 7 6 7 8 9 10 10 8 8 9 9 9 10 10 9 8 8 7 7 7 7 5 4 4 4 5 6 7 8 8 8 8 8 7 7 6 5 4 3 3 2 1 1
8 7 7 7 8 9 11 10 8 8 9 10 9 10 10 9 9 8 6 5 6 6 5 5 5 6 6 7 8 8 8 7 7 7 6 6 5 4 3 2 1 1 0 -0
7 7 7 7 8 9 11 11 9 8 10 10 9 10 10 9 10 9 5 5 6 6 6 6 6 7 7 8 8 8 7 7 6 6 5 4 3 2 2 1 1 -0 -1 -1
7 7 7 8 8 10 12 10 10 11 11 9 8 9 9 9 8 5 5 5 5 6 6 6 7 7 8 8 7 7 6 6 5 4 3 3 2 1 1 0 -0 -1 -1 -1
9 8 8 8 8 10 11 10 11 11 9 8 7 8 8 6 5 5 5 5 5 5 5 6 7 7 7 7 7 6 6 5 4 3 2 1 1 0 -0 -1 -1 -1 -2 -2
9 10 10 10 11 12 10 10 10 8 7 7 6 6 7 6 4 4 4 5 5 5 5 5 6 6 6 6 6 6 4 3 2 2 1 0 -0 -1 -1 -1 -2 -2 -2 -3
9 8 9 9 10 11 10 9 8 7 6 5 5 6 6 6 5 4 4 4 4 4 4 4 5 6 5 5 5 4 3 2 1 1 0 -1 -1 -1 -2 -2 -2 -3 -3 -3
10 8 8 9 11 11 10 8 7 7 6 6 5 6 6 6 5 4 4 4 4 4 4 4 5 5 4 3 3 2 2 1 0 -0 -1 -1 -2 -2 -2 -3 -3 -3 -3 -4
9 9 10 12 12 11 10 7 8 7 6 6 6 5 5 6 5 5 4 4 4 4 4 4 4 4 3 2 1 1 -0 -0 -0 -1 -1 -2 -2 -2 -3 -3 -3 -4 -4 -5
Wind_Speed
8 7 11 13 15 10 6 9 12 10 8 12 19 24 22 20 21 23 22 22 22 21 20 18 16 15 13 12 11 11 13 15 15 13 13 12 10 10 9 9 14 16 17 16
7 13 14 9 10 13 14 15 16 14 12 12 21 29 26 25 27 26 25 25 25 25 24 23 20 16 14 13 12 12 15 17 17 15 13 9 10 8 9 9 11 14 16 15
12 2 8 12 12 13 15 16 16 15 15 15 19 23 18 13 15 18 20 22 24 25 26 25 24 22 17 15 14 13 16 17 18 16 11 12 9 8 7 9 8 9 13 13
11 8 5 9 12 13 12 11 14 14 11 8 6 11 14 9 9 11 15 18 20 21 22 23 23 24 20 17 15 16 17 19 18 18 16 19 13 12 11 10 9 10 12 13
8 7 10 12 13 12 8 4 8 10 12 13 15 11 17 10 13 14 16 18 19 19 18 19 21 21 20 18 16 17 18 19 20 19 19 18 15 13 13 13 14 13 11 12
7 5 6 7 8 12 8 4 8 10 8 11 17 15 16 13 13 13 13 14 15 14 14 16 18 18 18 16 17 18 20 20 20 20 19 18 19 19 19 18 16 13 10 10
8 11 9 7 6 7 10 6 5 6 8 11 8 11 16 14 11 14 14 15 15 14 13 13 15 16 16 18 19 20 21 21 21 20 19 18 20 23 24 21 17 15 12 10
6 6 11 11 12 9 14 11 9 7 8 10 8 14 14 13 13 14 15 14 14 15 14 13 13 14 17 20 21 22 23 22 22 20 18 17 18 16 16 18 16 14 12 11
7 4 4 11 11 9 8 11 12 9 12 13 13 16 17 17 17 17 15 12 11 13 14 14 12 12 16 19 22 23 23 22 21 20 18 17 16 15 17 16 15 12 12 12
6 5 5 6 8 12 11 6 7 8 7 12 17 24 17 18 16 13 10 9 10 13 15 14 11 11 14 17 19 20 20 21 20 20 18 15 15 16 17 16 15 14 14 13
9 6 4 6 11 15 14 10 11 9 10 9 14 15 9 11 11 11 9 8 11 15 17 15 9 9 12 15 17 18 19 19 19 19 17 17 16 16 16 15 15 15 14 13
11 6 8 12 13 14 17 18 18 12 15 13 13 19 11 12 11 10 10 12 14 16 16 13 6 8 13 16 17 18 18 17 18 18 18 17 18 17 16 16 15 14 13 11
10 6 5 6 7 10 12 21 23 19 15 16 19 17 6 8 10 11 13 16 17 17 14 8 3 10 13 16 17 17 16 17 17 18 19 18 18 18 17 16 15 14 12 11
9 8 10 11 11 6 10 16 21 20 16 19 26 28 23 17 17 18 18 19 18 15 10 4 6 10 13 14 15 16 16 16 16 17 19 19 18 17 17 16 14 13 11 10
8 7 12 19 22 21 24 26 22 23 24 22 27 28 27 22 19 17 17 16 15 13 6 6 9 11 13 14 14 15 16 15 16 18 18 18 17 17 16 15 14 12 10 8
8 6 8 15 20 22 25 25 23 21 22 25 28 29 23 18 13 13 14 14 13 9 5 8 10 12 13 14 15 15 16 15 16 18 18 18 17 17 16 14 13 11 9 7
7 5 5 10 13 15 11 10 10 11 14 15 20 21 16 13 13 13 13 12 10 6 6 10 11 12 13 14 15 16 16 16 17 18 18 17 17 16 15 13 12 10 8 6
8 6 4 7 9 6 5 7 10 12 14 15 18 17 12 11 11 10 9 9 6 3 9 11 12 12 13 14 15 17 17 17 18 18 17 16 16 15 13 12 10 8 6 5
13 8 4 4 6 10 9 5 5 5 6 7 12 15 13 8 8 5 5 4 2 4 10 11 13 14 15 16 17 18 18 17 17 17 16 15 15 14 12 11 9 7 5 4
7 9 6 4 5 5 6 7 4 4 4 8 7 9 9 5 3 3 7 7 8 11 12 13 15 16 16 16 17 18 17 17 16 16 15 14 13 12 11 10 8 5 4 3
4 5 7 7 5 7 7 7 4 4 8 10 8 5 5 4 0 4 7 9 11 13 14 15 15 14 15 15 16 17 16 15 15 15 14 13 11 11 10 8 6 5 3 1
7 6 6 5 6 6 2 3 3 7 8 8 6 2 4 6 7 8 10 11 12 13 14 14 15 14 13 14 16 17 16 15 15 14 13 12 11 9 7 7 5 4 2 1
7 7 4 7 7 5 3 6 8 7 8 5 2 2 9 8 7 9 10 11 12 13 13 13 16 16 14 13 15 18 15 14 15 14 13 11 10 8 6 5 4 2 1 2
5 5 5 6 10 9 9 8 5 4 4 3 2 7 8 10 11 11 11 11 12 12 13 14 16 16 14 13 14 16 15 14 14 14 12 10 8 7 5 4 2 1 1 3
4 6 5 7 9 8 3 2 2 3 4 6 8 8 11 14 13 13 12 12 12 12 12 13 14 16 16 15 15 14 13 14 14 12 10 8 6 5 4 3 1 1 1 3
7 9 6 4 2 3 3 2 3 4 6 8 11 12 11 12 15 14 13 12 13 13 13 14 16 16 15 15 14 11 11 12 12 10 8 6 5 4 2 1 1 1 3 5
Wind_Direction
177 197 213 216 217 239 259 251 259 264 273 285 273 273 271 269 266 265 264 264 263 261 259 256 256 255 249 238 228 218 197 180 176 178 174 166 159 148 139 135 138 139 136 134
176 225 229 230 228 237 247 257 266 278 274 280 283 281 277 267 261 260 261 261 259 258 257 252 249 246 241 231 219 206 188 177 177 180 178 169 143 130 123 123 123 133 134 136
200 188 218 216 222 230 240 249 261 271 291 280 286 288 276 262 256 256 256 257 256 253 250 246 242 237 232 224 208 194 183 177 177 175 158 138 123 125 122 121 120 131 134 135
221 217 194 204 221 228 251 250 256 267 272 276 275 290 286 281 266 258 255 252 250 248 245 243 240 232 224 217 201 189 180 176 174 168 166 163 161 157 157 147 138 136 133 133
205 202 213 225 228 222 243 236 246 256 263 271 255 262 281 265 262 263 258 257 258 257 252 247 241 235 223 209 191 183 177 176 172 172 175 171 162 149 141 136 137 135 133 132
227 197 213 223 227 224 225 228 253 252 255 260 252 237 274 269 261 265 267 269 273 275 271 261 249 239 225 200 185 179 177 175 172 173 174 168 154 148 147 147 146 142 138 135
225 220 213 196 193 193 200 208 239 229 226 248 244 231 257 274 253 255 270 281 292 295 290 276 255 232 212 193 185 180 177 174 172 172 171 163 157 156 157 156 155 150 146 144
205 224 204 204 212 205 201 211 226 250 251 267 243 244 258 268 256 258 265 278 291 297 297 284 264 230 205 193 186 181 178 173 171 169 165 158 157 158 158 158 155 151 147 143
206 234 191 207 207 207 198 218 236 263 274 273 259 257 265 258 256 256 260 270 290 310 313 297 270 229 205 193 186 183 176 170 167 163 155 153 156 154 152 150 146 139 136 138
207 236 218 200 204 220 225 214 205 217 252 258 261 263 262 264 257 253 252 280 307 323 324 312 279 227 202 191 184 179 173 165 160 154 149 148 151 148 146 144 140 137 136 138
207 221 219 194 212 212 203 214 220 235 244 257 270 267 270 267 260 256 268 296 317 325 325 318 287 222 190 178 172 168 163 156 152 148 141 143 142 142 140 136 135 135 136 140
203 220 245 237 232 227 222 224 221 235 241 241 257 268 274 264 259 264 285 305 318 323 323 318 284 190 169 166 163 158 154 151 147 141 138 138 138 137 133 131 132 133 134 136
174 201 259 258 223 218 235 237 235 238 251 251 253 264 273 258 257 272 293 307 314 317 319 313 226 170 162 160 154 149 145 142 140 138 135 135 135 133 131 130 130 130 131 132
184 214 230 258 279 269 247 248 240 236 243 250 249 260 267 270 276 287 298 304 307 308 306 271 176 158 153 151 146 140 136 138 137 135 133 132 131 130 128 128 127 128 130 133
201 241 244 259 271 273 267 267 259 245 243 250 260 265 271 277 282 287 293 296 296 297 274 193 162 149 145 142 138 133 132 135 135 130 126 126 125 124 124 125 125 126 128 132
211 256 270 272 272 272 272 272 268 259 250 249 259 267 275 283 282 286 291 293 293 293 222 172 155 148 146 142 137 132 131 132 129 124 123 124 124 124 124 125 127 128 130 134
207 233 271 285 300 295 277 278 269 252 243 244 253 261 273 277 282 286 288 289 291 280 184 161 153 148 143 140 137 133 131 128 123 121 123 124 124 124 126 128 130 132 136 140
220 234 263 290 308 291 305 303 285 276 271 254 251 262 272 275 283 288 294 293 289 214 159 149 140 133 130 130 129 125 124 122 121 121 123 125 126 127 129 131 130 133 137 141
225 230 255 280 294 286 297 317 311 296 301 303 266 261 262 274 287 295 342 329 277 148 139 133 130 128 127 127 127 123 120 120 121 124 126 129 130 131 133 132 132 134 139 140
215 220 238 271 294 291 307 326 320 265 328 6 328 275 257 253 288 14 21 39 87 108 116 121 123 124 123 126 126 121 121 122 123 125 126 128 130 132 132 129 129 132 137 139
171 199 227 247 263 275 286 309 303 336 347 341 331 296 222 209 146 57 57 69 87 100 111 118 120 120 123 127 124 119 118 118 120 121 121 122 124 123 123 123 126 133 136 141
200 196 208 213 234 267 279 310 319 316 319 321 322 301 159 121 94 83 81 86 93 100 107 113 114 113 119 124 121 114 112 117 118 118 118 117 117 116 121 126 129 129 124 324
217 215 219 219 243 292 286 269 289 307 302 314 316 139 134 122 112 102 96 96 98 102 107 112 114 113 112 114 116 114 118 122 121 119 117 117 116 118 126 131 134 133 75 336
226 211 234 261 267 275 283 286 294 318 310 328 141 140 139 128 124 114 108 104 103 105 110 115 114 111 106 106 108 116 123 125 122 121 121 124 126 127 127 123 118 99 354 335
235 187 224 257 276 295 308 326 351 56 78 96 104 117 128 127 124 120 114 110 109 109 110 111 110 109 109 111 111 116 123 125 123 124 126 129 131 131 127 116 85 359 336 319
210 203 211 249 284 285 337 37 99 107 102 111 113 112 118 124 124 120 115 114 114 113 112 110 109 111 114 113 112 115 124 129 128 129 131 131 130 125 114 87 28 247 294 309
Height
1490 1492 1488 1485 1487 1485 1486 1485 1483 1481 1482 1482 1473 1466 1464 1464 1463 1462 1461 1459 1458 1457 1457 1458 1458 1458 1459 1461 1464 1466 1468 1470 1472 1474 1477 1480 1484 1487 1491 1495 1498 1501 1504 1507
1490 1489 1484 1485 1488 1489 1489 1489 1486 1483 1482 1481 1470 1458 1456 1455 1452 1453 1452 1451 1450 1449 1449 1449 1450 1451 1452 1454 1457 1459 1461 1463 1466 1469 1472 1475 1479 1483 1487 1491 1494 1498 1501 1504
1480 1484 1483 1487 1488 1490 1488 1488 1486 1485 1482 1478 1474 1450 1439 1437 1440 1443 1443 1442 1439 1438 1438 1439 1441 1442 1444 1446 1449 1452 1454 1456 1459 1463 1466 1469 1474 1479 1483 1487 1491 1495 1499 1502
1480 1481 1484 1486 1487 1487 1486 1484 1486 1486 1487 1477 1475 1460 1431 1433 1437 1437 1436 1432 1428 1427 1427 1428 1429 1432 1435 1438 1441 1444 1447 1450 1453 1456 1460 1464 1469 1474 1479 1484 1488 1492 1496 1500
1477 1480 1482 1483 1483 1485 1483 1485 1486 1485 1483 1480 1470 1471 1432 1430 1431 1429 1426 1423 1421 1420 1420 1420 1421 1423 1426 1429 1433 1437 1440 1443 1447 1451 1456 1462 1467 1471 1475 1480 1485 1489 1493 1497
1475 1479 1480 1479 1480 1482 1484 1487 1487 1484 1485 1477 1456 1459 1430 1418 1419 1419 1418 1417 1416 1415 1415 1414 1414 1416 1419 1421 1424 1429 1433 1437 1441 1445 1452 1458 1462 1467 1471 1476 1481 1486 1490 1494
1474 1474 1476 1478 1479 1482 1484 1487 1482 1478 1475 1459 1443 1446 1425 1412 1416 1415 1414 1413 1412 1411 1410 1408 1407 1408 1410 1412 1416 1421 1426 1430 1435 1440 1447 1453 1459 1464 1469 1473 1479 1483 1487 1491
1470 1466 1469 1472 1473 1474 1477 1477 1473 1464 1451 1439 1440 1436 1415 1409 1411 1411 1411 1410 1408 1406 1404 1401 1400 1400 1401 1404 1409 1414 1420 1425 1429 1435 1442 1450 1456 1462 1467 1472 1477 1481 1485 1489
1464 1463 1466 1468 1470 1472 1474 1474 1468 1467 1457 1452 1434 1417 1407 1405 1407 1406 1405 1405 1403 1401 1398 1395 1393 1393 1395 1398 1403 1409 1414 1419 1425 1431 1438 1446 1453 1459 1465 1470 1475 1479 1484 1487
1460 1464 1463 1466 1470 1469 1467 1466 1469 1469 1455 1440 1421 1409 1400 1395 1396 1398 1398 1399 1398 1396 1393 1389 1387 1387 1390 1393 1399 1405 1411 1415 1421 1428 1435 1443 1450 1457 1463 1468 1473 1478 1482 1485
1459 1463 1463 1465 1463 1457 1464 1467 1463 1455 1447 1438 1420 1401 1387 1391 1392 1393 1394 1395 1394 1392 1389 1385 1383 1383 1386 1390 1396 1402 1408 1413 1419 1426 1433 1441 1448 1456 1461 1467 1472 1477 1480 1483
1456 1459 1458 1454 1449 1450 1450 1449 1451 1451 1439 1432 1422 1399 1388 1390 1389 1391 1392 1392 1390 1388 1385 1382 1379 1380 1383 1387 1393 1399 1405 1412 1418 1425 1432 1440 1447 1454 1460 1466 1471 1475 1478 1480
1454 1459 1455 1440 1445 1449 1447 1440 1439 1440 1435 1427 1419 1398 1387 1388 1388 1389 1389 1388 1386 1385 1382 1379 1378 1379 1382 1386 1391 1397 1404 1411 1419 1425 1432 1439 1446 1453 1460 1465 1470 1473 1476 1478
1452 1452 1448 1437 1428 1435 1440 1434 1432 1435 1426 1415 1403 1391 1385 1386 1387 1386 1386 1385 1383 1381 1379 1378 1378 1379 1382 1387 1391 1396 1404 1412 1419 1425 1432 1439 1446 1453 1459 1464 1468 1471 1474 1476
1450 1447 1443 1437 1432 1431 1429 1424 1422 1422 1416 1410 1393 1387 1381 1382 1384 1384 1383 1381 1380 1378 1376 1377 1377 1379 1383 1387 1391 1397 1405 1412 1419 1426 1433 1440 1446 1452 1458 1462 1466 1470 1472 1475
1444 1443 1439 1432 1424 1419 1415 1409 1408 1406 1404 1401 1395 1386 1380 1381 1382 1381 1380 1378 1376 1374 1374 1375 1377 1379 1383 1387 1392 1398 1406 1413 1421 1427 1434 1440 1446 1452 1457 1461 1465 1468 1471 1472
1438 1440 1436 1421 1412 1411 1403 1398 1397 1395 1391 1391 1387 1379 1378 1379 1378 1377 1376 1374 1373 1372 1373 1375 1377 1380 1384 1389 1394 1401 1408 1415 1423 1429 1436 1442 1447 1452 1456 1460 1464 1467 1469 1469
1433 1435 1434 1423 1416 1405 1396 1394 1393 1389 1383 1381 1379 1376 1376 1376 1376 1374 1373 1372 1371 1371 1373 1375 1378 1382 1386 1392 1398 1405 1412 1419 1426 1432 1437 1443 1447 1452 1456 1460 1463 1465 1466 1467
1428 1431 1430 1423 1413 1401 1392 1391 1390 1388 1382 1377 1374 1372 1373 1374 1374 1372 1372 1370 1371 1372 1375 1377 1381 1385 1390 1397 1403 1410 1416 1423 1429 1434 1439 1444 1448 1452 1456 1459 1461 1463 1464 1464
1425 1427 1427 1421 1414 1402 1391 1388 1388 1389 1379 1377 1374 1372 1372 1374 1373 1374 1373 1372 1373 1375 1377 1381 1385 1391 1396 1403 1409 1415 1420 1426 1431 1436 1441 1445 1449 1453 1456 1458 1460 1461 1461 1461
1422 1423 1421 1418 1413 1397 1388 1387 1386 1382 1381 1377 1375 1373 1373 1374 1376 1378 1376 1376 1377 1379 1382 1386 1390 1396 1402 1408 1413 1419 1424 1429 1434 1438 1442 1446 1450 1453 1456 1457 1459 1459 1459 1458
1411 1413 1413 1412 1410 1399 1386 1386 1384 1382 1379 1378 1376 1374 1374 1375 1377 1378 1378 1379 1381 1383 1386 1390 1395 1400 1406 1412 1417 1421 1426 1431 1436 1440 1444 1448 1451 1453 1455 1456 1457 1457 1456 1454
1406 1404 1401 1401 1395 1386 1386 1385 1383 1381 1379 1377 1375 1374 1374 1376 1378 1380 1381 1383 1385 1388 1391 1395 1399 1404 1410 1416 1422 1425 1430 1434 1438 1442 1446 1449 1451 1453 1454 1455 1455 1454 1452 1451
1402 1404 1402 1397 1388 1385 1383 1382 1380 1378 1376 1375 1374 1375 1376 1377 1379 1382 1384 1387 1389 1392 1395 1399 1403 1408 1414 1421 1426 1430 1434 1438 1441 1444 1447 1449 1451 1452 1453 1453 1452 1451 1449 1447
1397 1399 1398 1393 1386 1383 1380 1380 1379 1377 1376 1375 1375 1376 1378 1379 1382 1385 1387 1390 1393 1396 1400 1404 1408 1413 1419 1425 1430 1434 1437 1441 1444 1446 1448 1449 1451 1451 1451 1450 1449 1448 1446 1444
1393 1392 1390 1385 1383 1383 1382 1380 1379 1379 1378 1378 1378 1379 1381 1384 1385 1388 1391 1395 1398 1401 1405 1410 1415 1419 1424 1429 1433 1437 1440 1443 1445 1447 1448 1449 1449 1449 1449 1448 1447 1445 1443 1441